{"data":{"norad_id":54835,"epoch":"2026-09-20T22:56:20.795136Z","epoch_age_seconds":53299,"freshness":"FRESH","line1":"1 54835U 22177R   26263.95579624 -.00000657  00000+0 -14374-4 0  9992","line2":"2 54835  43.0018 113.5656 0001085 266.7984  93.2744 15.27574998206785","mean_motion":15.27574998,"eccentricity":0.0001085,"inclination_deg":43.0018,"raan_deg":113.5656,"arg_perigee_deg":266.7984,"mean_anomaly_deg":93.2744,"bstar":-1.4374e-5,"rev_number":20678,"period_min":94.267057387385,"perigee_km":482.31963355147,"apogee_km":483.8085141845,"semimajor_km":6861.201073868,"source":"CELESTRAK","updated_at":"2026-09-21T09:00:33.134919Z"}}